STARLINK-11497 [DTC] (62470 NORAD) Tracking and Keplerian Element Data

This shows tracking and keplerian element data for the satellite.

Feedback or suggestion? Click here.




ElementValue
Catalog62470
NameSTARLINK-11497 [DTC]
Epoch Orbit660
Epoch Day34.49100805
Epoch Year2025
RAAN110.4495
Inclination42.9848
Eccentricity0.000163
Argument of Perigee265.3568
Mean Anonmoly94.7115
Mean Motion15.77857622
Decay Rate-8.535E-05
L11 62470U 24254J 25034.49100805 -.00008535 00000+0 -46225-4 0 9992
L22 62470 42.9848 110.4495 0001630 265.3568 94.7115 15.77857622 6604



Live tracking and technical data element details for STARLINK-11497 [DTC] (NORAD 62470). STARLINK-11497 [DTC] can be tracked NOW for your location showing map with azimuth and elevation plus other details from your city location.







IsCatalogInMostPopularTable: catalog: 62470, numindb: 21
Update: records affected: 1



GetName: 62470 STARLINK-11497 [DTC]

Hit Count: updated at: Sun, 18 May 2025 23:41:04 GMT